Weather in Novodomoseykino

Russia / Orenburg Oblast     54°17′52″N   52°52′57″E
temp.,
°C
wind,
m/s
gust,
m/s
humid.,
%
clouds,
%
prec.,
mm/h
press.,
hPa
HPBL,
m
28 february, sun
sun2823:000ssw2499100 3.6 998201
02:00−1w2499100 0.8 998152
05:00−6nw349796 0.9 99991
08:00−8nnw479592 0.1 1000209
11:00−11n479592 0.1 1002250
14:00−11n5894100 0.1 1004329
17:00−12n5893100 0.1 1006392
20:00−15nnw4896100 0.0 1008193
1 march, mon
mon123:00−18nnw339790 0.1 101148
02:00−17nnw239788 0.0 101369
05:00−19nw239789 0.0 101529
08:00−21nnw239886 0.0 101620
11:00−18nnw249567 0.0 1019213
14:00−15nnw338983 0.0 1020314
17:00−15nw359391 0.0 1021352
20:00−20wnw2210099 0.0 102120
2 march, tue
tue223:00−22wsw229972 0.0 102120
02:00−23wsw339910 0.0 101927
05:00−21ssw489924 0.0 1017171
08:00−18ssw51298100 0.0 1013273
11:00−15ssw81395100 0.4 1011387
14:00−11ssw81493100 0.6 1007508
17:00−7ssw91494100 1.3 1005591
20:00−5ssw71494100 0.8 1002507
3 march, wed
wed323:00−4sw51096100 1.1 1001272
02:00−4wsw599791 0.3 1000257
05:00−3w589495 0.3 1001376
08:00−6w479898 0.1 1001295
11:00−5w469599 0.2 1003312
14:00−4w4694100 0.1 1003422
17:00−4wnw5792100 0.1 1004551
20:00−7nw5892100 0.1 1005515
4 march, thu
thu423:00−9nw389499 0.1 1007191
02:00−14wnw239739 0.0 100720
05:00−13w339861 0.1 100861
08:00−14wsw359887 0.0 100890
11:00−10wsw599692 0.1 1008306
14:00−7sw71294100 0.1 1007470
17:00−6sw91493100 0.1 1005681
20:00−6sw101792100 0.3 1001766